Flag for Italy

Past Weather in Livorno, Italy — Yesterday and Last 2 Weeks

Now
70 °F

Passing clouds.


Feels Like: 70 °F
Forecast: 80 / 70 °F
Wind: 3 mph from East

Location: Pisa / S. Giusto

Current Time: Jul 12, 2020 at 3:21:57 am

Latest Report: Jul 12, 2020 at 1:15 am


Visibility: N/A

Pressure: 29.98 "Hg

Humidity: 94%

Dew Point: 68 °F

Location of LivornoLocation

Past Weather in Livorno — Graph

°F

Livorno Temperature Yesterday

Maximum temperature yesterday: 82 °F (at 2:45 pm)
Minimum temperature yesterday: 64 °F (at 4:15 am)
Average temperature yesterday: 74 °F

High & Low Weather Summary for the Past Weeks

 TemperatureHumidityPressure
High84 °F (Jun 27, 1:45 pm)100% (Jun 27, 4:45 am)30.04 "Hg (Jun 27, 4:45 am)
Low59 °F (Jun 28, 5:45 am)26% (Jul 10, 3:45 pm)29.74 "Hg (Jul 6, 9:15 pm)
Average74 °F76%29.93 "Hg
* Reported Jun 27 1:15 am — Jul 12 1:15 am, Livorno. Weather by CustomWeather, © 2020

Note: Actual official high and low records may vary slightly from our data, if they occured in-between our weather recording intervals... More about our weather records

Livorno Weather History for the Previous 24 Hours

Scroll right to see more
 ConditionsComfort  
Time TempWeatherWind HumidityBarometerVisibility
1:15 am
Sun, Jul 12
70 °FPassing clouds.3 mph94%29.98 "HgN/A
12:45 am70 °FPassing clouds.1 mph94%29.98 "HgN/A
12:15 am70 °FClear.3 mph94%29.98 "Hg10 mi
11:45 pm
Sat, Jul 11
70 °FClear.3 mph100%29.98 "Hg10 mi
11:15 pm72 °FClear.3 mph94%29.98 "Hg10 mi
10:45 pm72 °FClear.3 mph94%29.98 "Hg10 mi
10:15 pm75 °FClear.2 mph83%29.98 "Hg10 mi
9:45 pm75 °FClear.2 mph83%29.98 "Hg10 mi
9:15 pm75 °FClear.3 mph83%29.95 "Hg10 mi
8:45 pm75 °FSunny.3 mph83%29.95 "Hg10 mi
8:15 pm77 °FSunny.7 mph79%29.95 "Hg10 mi
7:45 pm79 °FSunny.9 mph74%29.95 "Hg10 mi
7:15 pm79 °FSunny.7 mph70%29.95 "Hg10 mi
6:45 pm79 °FSunny.8 mph70%29.95 "Hg10 mi
6:15 pm81 °FSunny.8 mph66%29.95 "Hg10 mi
5:45 pm81 °FSunny.7 mph66%29.95 "Hg10 mi
5:15 pm81 °FPassing clouds.7 mph66%29.95 "HgN/A
4:45 pm82 °FPassing clouds.10 mph58%29.95 "HgN/A
4:15 pm81 °FPassing clouds.10 mph66%29.95 "HgN/A
3:45 pm81 °FPassing clouds.7 mph66%29.95 "HgN/A
2:45 pm82 °FPassing clouds.10 mph62%29.98 "HgN/A
2:15 pm81 °FPassing clouds.8 mph62%29.98 "HgN/A
1:45 pm81 °FPassing clouds.10 mph62%29.98 "HgN/A
1:15 pm81 °FSunny.9 mph58%29.98 "Hg10 mi
12:45 pm81 °FPassing clouds.8 mph54%29.98 "HgN/A
12:15 pm81 °FSunny.7 mph54%29.98 "Hg10 mi
11:45 am79 °FPassing clouds.7 mph65%29.98 "HgN/A
11:15 am79 °FPassing clouds.10 mph65%29.98 "HgN/A
10:45 am77 °FPassing clouds.3 mph69%29.98 "HgN/A
10:15 am75 °FPassing clouds.2 mph74%29.98 "HgN/A
9:45 am73 °FPassing clouds.2 mph74%29.98 "HgN/A
9:15 am73 °FPassing clouds.5 mph78%29.98 "HgN/A
8:45 am73 °FSunny.6 mph78%29.98 "Hg10 mi
8:15 am72 °FSunny.7 mph83%29.98 "Hg10 mi
7:45 am68 °FSunny.5 mph94%29.98 "Hg10 mi
7:15 am66 °FPassing clouds.6 mph94%29.98 "HgN/A
6:45 am64 °FPassing clouds.3 mph100%29.95 "HgN/A
6:15 am64 °FPassing clouds.2 mph100%29.95 "HgN/A
5:45 am64 °FPassing clouds.3 mph94%29.95 "HgN/A
5:15 am64 °FClear.5 mph94%29.95 "Hg10 mi
4:45 am64 °FClear.5 mph100%29.95 "Hg10 mi
4:15 am64 °FClear.3 mph100%29.95 "Hg10 mi
3:45 am66 °FClear.3 mph94%29.95 "Hg10 mi
3:15 am66 °FClear.3 mph94%29.98 "Hg10 mi
Weather by CustomWeather, © 2020

See weather overview